Date,TemperatureHighF,TemperatureAvgF,TemperatureLowF,DewpointHighF,DewpointAvgF,DewpointLowF,HumidityHigh,HumidityAvg,HumidityLow,PressureMaxIn,PressureMinIn,WindSpeedMaxMPH,WindSpeedAvgMPH,GustSpeedMaxMPH,PrecipitationSumIn
2013-7-1,77,71,67,-100,-100,-100,0,0,100,0.00,40.00,0,-999,0,0.00
2013-7-2,74,67,61,-100,-100,-100,0,0,100,0.00,40.00,0,-999,0,0.00
2013-7-3,84,71,61,-100,-100,-100,0,0,100,0.00,40.00,0,-999,0,0.00
2013-7-4,89,79,67,-100,-100,-100,0,0,100,0.00,40.00,0,-999,0,0.00
2013-7-5,91,81,70,-100,-100,-100,0,0,100,0.00,40.00,0,-999,0,0.00
2013-7-6,88,78,69,-100,-100,-100,0,0,100,0.00,40.00,0,-999,0,0.00
2013-7-7,86,76,65,-100,-100,-100,0,0,100,0.00,40.00,0,-999,0,0.00
2013-7-8,80,73,65,-100,-100,-100,0,0,100,0.00,40.00,0,-999,0,0.00
2013-7-9,74,69,65,-100,-100,-100,0,0,100,0.00,40.00,0,-999,0,0.00
2013-7-10,75,68,66,-100,-100,-100,0,0,100,0.00,40.00,0,-999,0,0.00
2013-7-11,80,76,67,-100,-100,-100,0,0,100,0.00,40.00,0,-999,0,0.00
2013-7-12,79,69,61,-100,-100,-100,0,0,100,0.00,40.00,0,-999,0,0.00
2013-7-13,77,70,60,-100,-100,-100,0,0,100,0.00,40.00,0,-999,0,0.00
2013-7-14,84,76,66,-100,-100,-100,0,0,100,0.00,40.00,0,-999,0,0.00
2013-7-15,90,78,66,-100,-100,-100,0,0,100,0.00,40.00,0,-999,0,0.00
2013-7-16,90,79,66,-100,-100,-100,0,0,100,0.00,40.00,0,-999,0,0.00
2013-7-17,91,79,67,-100,-100,-100,0,0,100,0.00,40.00,0,-999,0,0.00
2013-7-18,90,79,70,-100,-100,-100,0,0,100,0.00,40.00,0,-999,0,0.00
2013-7-19,93,81,70,-100,-100,-100,0,0,100,0.00,40.00,0,-999,0,0.00
2013-7-20,87,77,68,-100,-100,-100,0,0,100,0.00,40.00,0,-999,0,0.00
2013-7-21,80,72,64,-100,-100,-100,0,0,100,0.00,40.00,0,-999,0,0.00
2013-7-22,74,68,63,-100,-100,-100,0,0,100,0.00,40.00,0,-999,0,0.00
2013-7-23,73,66,63,-100,-100,-100,0,0,100,0.00,40.00,0,-999,0,0.00
2013-7-24,79,69,57,-100,-100,-100,0,0,100,0.00,40.00,0,-999,0,0.00
2013-7-25,70,62,51,-100,-100,-100,0,0,100,0.00,40.00,0,-999,0,0.00
2013-7-26,75,66,62,-100,-100,-100,0,0,100,0.00,40.00,0,-999,0,0.00
2013-7-27,81,71,59,-100,-100,-100,0,0,100,0.00,40.00,0,-999,0,0.00
2013-7-28,79,68,59,-100,-100,-100,0,0,100,0.00,40.00,0,-999,0,0.00
2013-7-29,82,70,63,-100,-100,-100,0,0,100,0.00,40.00,0,-999,0,0.00
2013-7-30,78,69,58,-100,-100,-100,0,0,100,0.00,40.00,0,-999,0,0.00
2013-7-31,79,69,56,-100,-100,-100,0,0,100,0.00,40.00,0,-999,0,0.00